Regional Weather Roundup
Issued by NWS

Home | Current Version | Previous Version | Graphics & Text | Print | Product List | Glossary On
Versions: 1 2 3 4 5 6 7 8 9 10 11 12 13 14 15 16 17 18 19 20 21 22 23 24 25 26 27 28 29 30 31 32 33 34 35 36 37 38 39 40 41 42 43 44 45 46 47 48 49 50
976
ASUS45 KBOU 272107
RWRCO

WEATHER ROUNDUP FOR COLORADO
NATIONAL WEATHER SERVICE DENVER/BOULDER CO
300 PM MDT MON MAR 27 2017

NOTE: "FAIR" INDICATES FEW OR NO CLOUDS BELOW 12000 FEET WITH NO
SIGNIFICANT WEATHER AND/OR OBSTRUCTIONS TO VISIBILITY.

COZ001>005-013-030-031-272200-
...NORTHWEST COLORADO...

CITY           SKY/WX    TMP DP  RH WIND       PRES   REMARKS
CRAIG          LGT RAIN  52  26  36 MISG      29.81F
HAYDEN         FAIR      52  25  35 E7        29.82F
MEEKER         CLOUDY    54  21  27 S16G25    29.82S
MOUNT WERNER   NOT AVBL
STEAMBOAT SPGS CLOUDY    51  26  38 W5        29.82F
WALDEN         NOT AVBL
$$

COZ006>008-011-272200-
...WEST CENTRAL VALLEYS...

CITY           SKY/WX    TMP DP  RH WIND       PRES   REMARKS
GRAND JUNCTION CLOUDY    58  27  30 NW12      29.79F
MONTROSE       CLOUDY    57  27  31 SW13G22   29.83F
EAGLE          PTSUNNY   55  19  24 SW17G24   29.83F
RIFLE          CLOUDY    60  23  24 W14       29.80F
DELTA          CLOUDY    61  22  22 CALM      29.81F
NUCLA          CLOUDY    55  27  33 SW13G22   29.87F
$$

COZ017>023-064>068-272200-
...SOUTHWEST COLORADO...

CITY           SKY/WX    TMP DP  RH WIND       PRES   REMARKS
DURANGO        CLOUDY    55  20  25 S9        29.88F
CORTEZ         CLOUDY    59  26  28 SW14G21   29.85F
PAGOSA SPRINGS CLOUDY    51  23  34 W7        29.93F
TELLURIDE      NOT AVBL
WOLF CREEK PAS FLURRIES  30  21  69 S20G35    30.06F WCI  18
$$

COZ009-010-012-014-032>034-037-058>063-272200-
...CENTRAL COLORADO...

CITY           SKY/WX    TMP DP  RH WIND       PRES   REMARKS
ASPEN          PTSUNNY   50  20  30 CALM      29.85S
BUENA VISTA    PTSUNNY   55  20  26 SE17G30   29.85F
COPPER MTN     CLOUDY    36  19  51 S12       29.98F
BERTHOUD PASS  SNOW      23  12  63 E21       29.99F VSB<1/4 WCI   8
COTTONWOOD PAS CLOUDY    48  18  29 S12G23    29.92F
GUNNISON       FAIR      51  21  30 SE6       29.87F
KREMMLING      CLOUDY    59  23  25 SW8       29.85F
LEADVILLE      CLOUDY    41  14  33 S17       29.89F
MONARCH PASS   CLOUDY    34  23  64 SW22G29   30.10F WCI  22
SALIDA         PTSUNNY   57  23  27 S22G31    29.93F
SUNLIGHT       CLOUDY    32  21  64 SW16G29   29.97F HAZE    WCI  21
WILKERSON PASS CLOUDY    37  23  56 S3        30.00F
$$

COZ069>075-272200-
...SAN LUIS VALLEY/SANGRE DE CRISTO MOUNTAINS...

CITY           SKY/WX    TMP DP  RH WIND       PRES   REMARKS
ALAMOSA        PTSUNNY   59  23  25 S16G26    29.85F
LA VETA PASS   NOT AVBL
SAGUACHE       PTSUNNY   54  21  28 S10G17    29.88F
$$

COZ035-036-038>040-272200-
...NORTHERN COLORADO FRONT RANGE...

CITY           SKY/WX    TMP DP  RH WIND       PRES   REMARKS
DENVER INTL AP PTSUNNY   64  29  26 SE20      29.80F
DMNS CITY PARK   N/A     61  25  25 E8G14     29.79F
AURORA         PTSUNNY   60  28  30 S16G22    29.81F
FRONT RANGE AP PTSUNNY   64  32  29 SE22G28   29.83F
ERIE MUNI ARPT CLOUDY    64  24  21 CALM      29.81F
BOULDER MUN AP PTSUNNY   61  32  33 N9        29.82F
CENTENNIAL     PTSUNNY   60  30  32 SE14G21   29.82F
BROOMFIELD     PTSUNNY   61  28  29 N6        29.83F
FORT COLLINS   FAIR      63  31  30 SE5       29.82F
LONGMONT       FAIR      66  32  28 CALM      29.83F
$$

COZ041-046-047-076>085-087-088-272200-
...PIKES PEAK/PALMER DIVIDE AND SOUTHERN FOOTHILLS...

CITY           SKY/WX    TMP DP  RH WIND       PRES   REMARKS
COLO. SPRINGS  PTSUNNY   55  31  39 S15G24    29.87F
A. F. ACADEMY  NOT AVBL
SCHRIEVER AFB  FAIR      55  29  36 S14G22    29.88F
ELLICOTT       NOT AVBL
FALCON         FAIR      53  28  38 S15G26    29.90F
FORT CARSON    PTSUNNY   57  33  39 S15       29.86F
LIMON          PTSUNNY   58  35  42 S16G22    29.87F
MONUMENT HILL  FAIR      50  30  46 S21G26    29.88F
TRINIDAD       FAIR      62  28  27 SE8       29.82F
$$

COZ042>045-048>051-090-091-272200-
...NORTHEAST COLORADO...

CITY           SKY/WX    TMP DP  RH WIND       PRES   REMARKS
GREELEY ARPT   FAIR      66  30  26 SE12G17   29.81F
AKRON          FAIR      62  30  29 S15G21    29.84F
BURLINGTON     FAIR      62  39  42 S14       29.87F
WRAY           NOT AVBL
STERLING       FAIR      66  34  30 S8        29.81F
HOLYOKE        FAIR      68  32  26 S9        29.85F
FORT MORGAN    PTSUNNY   68  26  20 S13G20    29.82F
$$

COZ086-089-092>099-272200-
...SOUTHEAST COLORADO...

CITY           SKY/WX    TMP DP  RH WIND       PRES   REMARKS
PUEBLO         FAIR      65  34  31 SE14G22   29.81F
LA JUNTA       FAIR      69  33  26 SE18      29.81F
LAMAR          FAIR      68  33  27 S12       29.83F
SPRINGFIELD      N/A     66  33  29 S17       29.86F
$$




USA.gov is the U.S. government's official web portal to all federal, state and local government web resources and services.